Year,Month,Day,Hour,Minute,Value (Times are PST for windgust in km/hr)
2012,03,12,00,00,8.10
2012,03,12,00,01,9.60
2012,03,12,00,02,12.90
2012,03,12,00,03,11.30
2012,03,12,00,04,9.60
2012,03,12,00,05,9.60
2012,03,12,00,06,12.90
2012,03,12,00,07,3.20
2012,03,12,00,08,6.40
2012,03,12,00,09,8.10
2012,03,12,00,10,8.10
2012,03,12,00,11,3.20
2012,03,12,00,12,8.10
2012,03,12,00,13,6.40
2012,03,12,00,14,3.20
2012,03,12,00,15,3.20
2012,03,12,00,16,17.70
2012,03,12,00,17,4.80
2012,03,12,00,18,1.60
2012,03,12,00,19,4.80
2012,03,12,00,20,4.80
2012,03,12,00,21,4.80
2012,03,12,00,22,3.20
2012,03,12,00,23,3.20
2012,03,12,00,24,14.50
2012,03,12,00,25,14.50
2012,03,12,00,26,6.40
2012,03,12,00,27,9.60
2012,03,12,00,28,9.60
2012,03,12,00,29,11.30
2012,03,12,00,30,9.60
2012,03,12,00,31,6.40
2012,03,12,00,32,3.20
2012,03,12,00,33,3.20
2012,03,12,00,35,3.20
2012,03,12,00,37,1.60
2012,03,12,00,38,3.20
2012,03,12,00,39,3.20
2012,03,12,00,40,3.20
2012,03,12,00,41,1.60
2012,03,12,00,42,1.60
2012,03,12,00,44,3.20
2012,03,12,00,47,1.60
2012,03,12,00,48,9.60
2012,03,12,00,49,1.60
2012,03,12,00,52,1.60
2012,03,12,00,54,3.20
2012,03,12,00,55,8.10
2012,03,12,00,56,4.80
2012,03,12,00,57,4.80
2012,03,12,00,58,1.60
2012,03,12,00,59,3.20
2012,03,12,01,00,12.90
2012,03,12,01,01,6.40
2012,03,12,01,02,6.40
2012,03,12,01,03,4.80
2012,03,12,01,04,1.60
2012,03,12,01,07,8.10
2012,03,12,01,08,8.10
2012,03,12,01,09,1.60
2012,03,12,01,15,3.20
2012,03,12,01,22,1.60
2012,03,12,01,23,1.60
2012,03,12,01,24,1.60
2012,03,12,01,25,3.20
2012,03,12,01,26,3.20
2012,03,12,01,27,4.80
2012,03,12,01,28,1.60
2012,03,12,01,29,1.60
2012,03,12,01,30,3.20
2012,03,12,01,31,8.10
2012,03,12,01,32,1.60
2012,03,12,01,33,1.60
2012,03,12,01,34,1.60
2012,03,12,01,35,4.80
2012,03,12,01,39,3.20
2012,03,12,01,40,3.20
2012,03,12,01,41,1.60
2012,03,12,01,42,4.80
2012,03,12,01,43,1.60
2012,03,12,01,44,1.60
2012,03,12,01,45,1.60
2012,03,12,01,46,1.60
2012,03,12,01,48,3.20
2012,03,12,01,49,3.20
2012,03,12,01,50,1.60
2012,03,12,01,51,4.80
2012,03,12,01,52,3.20
2012,03,12,01,53,4.80
2012,03,12,01,54,3.20
2012,03,12,01,55,1.60
2012,03,12,01,58,3.20
2012,03,12,01,59,1.60
2012,03,12,02,02,1.60
2012,03,12,02,03,3.20
2012,03,12,02,04,1.60
2012,03,12,02,05,1.60
2012,03,12,02,06,1.60
2012,03,12,02,11,1.60
2012,03,12,02,12,3.20
2012,03,12,02,13,6.40
2012,03,12,02,14,3.20
2012,03,12,02,15,3.20
2012,03,12,02,16,1.60
2012,03,12,02,18,3.20
2012,03,12,02,19,1.60
2012,03,12,02,20,4.80
2012,03,12,02,21,3.20
2012,03,12,02,22,4.80
2012,03,12,02,23,4.80
2012,03,12,02,24,9.60
2012,03,12,02,25,4.80
2012,03,12,02,26,14.50
2012,03,12,02,27,6.40
2012,03,12,02,28,1.60
2012,03,12,02,29,4.80
2012,03,12,02,30,3.20
2012,03,12,02,31,3.20
2012,03,12,02,32,3.20
2012,03,12,02,33,4.80
2012,03,12,02,34,3.20
2012,03,12,02,35,3.20
2012,03,12,02,36,4.80
2012,03,12,02,37,11.30
2012,03,12,02,38,14.50
2012,03,12,02,39,14.50
2012,03,12,02,40,8.10
2012,03,12,02,41,9.60
2012,03,12,02,42,8.10
2012,03,12,02,43,4.80
2012,03,12,02,44,12.90
2012,03,12,02,45,6.40
2012,03,12,02,46,9.60
2012,03,12,02,47,11.30
2012,03,12,02,48,9.60
2012,03,12,02,49,12.90
2012,03,12,02,50,8.10
2012,03,12,02,51,8.10
2012,03,12,02,52,11.30
2012,03,12,02,53,4.80
2012,03,12,02,54,3.20
2012,03,12,02,55,6.40
2012,03,12,02,56,6.40
2012,03,12,02,57,6.40
2012,03,12,02,58,6.40
2012,03,12,02,59,3.20
2012,03,12,03,00,8.10
2012,03,12,03,01,6.40
2012,03,12,03,02,8.10
2012,03,12,03,03,17.70
2012,03,12,03,04,9.60
2012,03,12,03,05,16.10
2012,03,12,03,06,20.90
2012,03,12,03,07,17.70
2012,03,12,03,08,8.10
2012,03,12,03,09,6.40
2012,03,12,03,10,9.60
2012,03,12,03,11,9.60
2012,03,12,03,12,11.30
2012,03,12,03,13,12.90
2012,03,12,03,14,6.40
2012,03,12,03,15,19.30
2012,03,12,03,16,12.90
2012,03,12,03,17,25.70
2012,03,12,03,18,6.40
2012,03,12,03,19,4.80
2012,03,12,03,20,1.60
2012,03,12,03,21,6.40
2012,03,12,03,22,6.40
2012,03,12,03,23,11.30
2012,03,12,03,24,11.30
2012,03,12,03,25,14.50
2012,03,12,03,26,8.10
2012,03,12,03,27,19.30
2012,03,12,03,28,22.50
2012,03,12,03,29,22.50
2012,03,12,03,30,20.90
2012,03,12,03,31,30.60
2012,03,12,03,32,25.70
2012,03,12,03,33,11.30
2012,03,12,03,34,14.50
2012,03,12,03,35,17.70
2012,03,12,03,36,17.70
2012,03,12,03,37,6.40
2012,03,12,03,38,12.90
2012,03,12,03,39,24.20
2012,03,12,03,40,25.70
2012,03,12,03,41,27.40
2012,03,12,03,42,25.70
2012,03,12,03,43,29.00
2012,03,12,03,44,32.20
2012,03,12,03,45,14.50
2012,03,12,03,46,17.70
2012,03,12,03,47,11.30
2012,03,12,03,48,16.10
2012,03,12,03,49,30.60
2012,03,12,03,50,33.80
2012,03,12,03,51,24.20
2012,03,12,03,52,19.30
2012,03,12,03,53,20.90
2012,03,12,03,54,25.70
2012,03,12,03,55,37.00
2012,03,12,03,56,35.40
2012,03,12,03,57,22.50
2012,03,12,03,58,25.70
2012,03,12,03,59,22.50
2012,03,12,04,00,30.60
2012,03,12,04,01,25.70
2012,03,12,04,02,20.90
2012,03,12,04,03,40.20
2012,03,12,04,04,30.60
2012,03,12,04,05,35.40
2012,03,12,04,06,25.70
2012,03,12,04,07,24.20
2012,03,12,04,08,14.50
2012,03,12,04,09,24.20
2012,03,12,04,10,14.50
2012,03,12,04,11,25.70
2012,03,12,04,12,19.30
2012,03,12,04,13,24.20
2012,03,12,04,14,24.20
2012,03,12,04,15,22.50
2012,03,12,04,16,25.70
2012,03,12,04,17,38.60
2012,03,12,04,18,24.20
2012,03,12,04,19,24.20
2012,03,12,04,20,33.80
2012,03,12,04,21,33.80
2012,03,12,04,22,29.00
2012,03,12,04,23,29.00
2012,03,12,04,24,38.60
2012,03,12,04,25,17.70
2012,03,12,04,26,22.50
2012,03,12,04,27,40.20
2012,03,12,04,28,20.90
2012,03,12,04,29,29.00
2012,03,12,04,30,27.40
2012,03,12,04,31,25.70
2012,03,12,04,32,32.20
2012,03,12,04,33,30.60
2012,03,12,04,34,30.60
2012,03,12,04,35,17.70
2012,03,12,04,36,41.80
2012,03,12,04,37,38.60
2012,03,12,04,38,45.10
2012,03,12,04,39,20.90
2012,03,12,04,40,25.70
2012,03,12,04,41,22.50
2012,03,12,04,42,27.40
2012,03,12,04,43,24.20
2012,03,12,04,44,25.70
2012,03,12,04,45,20.90
2012,03,12,04,46,20.90
2012,03,12,04,47,19.30
2012,03,12,04,48,32.20
2012,03,12,04,49,37.00
2012,03,12,04,50,33.80
2012,03,12,04,51,27.40
2012,03,12,04,52,37.00
2012,03,12,04,53,43.50
2012,03,12,04,54,29.00
2012,03,12,04,55,35.40
2012,03,12,04,56,43.50
2012,03,12,04,57,27.40
2012,03,12,04,58,41.80
2012,03,12,04,59,33.80
2012,03,12,05,00,20.90
2012,03,12,05,01,29.00
2012,03,12,05,02,37.00
2012,03,12,05,05,14.50
2012,03,12,05,06,32.20
2012,03,12,05,07,35.40
2012,03,12,05,08,37.00
2012,03,12,05,09,35.40
2012,03,12,05,10,32.20
2012,03,12,05,11,27.40
2012,03,12,05,12,40.20
2012,03,12,05,13,33.80
2012,03,12,05,14,43.50
2012,03,12,05,15,30.60
2012,03,12,05,16,41.80
2012,03,12,05,17,33.80
2012,03,12,05,18,29.00
2012,03,12,05,19,27.40
2012,03,12,05,20,38.60
2012,03,12,05,21,27.40
2012,03,12,05,22,27.40
2012,03,12,05,23,27.40
2012,03,12,05,24,25.70
2012,03,12,05,25,32.20
2012,03,12,05,26,16.10
2012,03,12,05,27,19.30
2012,03,12,05,28,30.60
2012,03,12,05,29,49.90
2012,03,12,05,30,51.50
2012,03,12,05,31,30.60
2012,03,12,05,32,27.40
2012,03,12,05,33,22.50
2012,03,12,05,34,17.70
2012,03,12,05,35,25.70
2012,03,12,05,36,41.80
2012,03,12,05,37,32.20
2012,03,12,05,38,22.50
2012,03,12,05,39,30.60
2012,03,12,05,40,38.60
2012,03,12,05,41,22.50
2012,03,12,05,42,37.00
2012,03,12,05,43,29.00
2012,03,12,05,44,32.20
2012,03,12,05,45,17.70
2012,03,12,05,46,40.20
2012,03,12,05,47,30.60
2012,03,12,05,48,24.20
2012,03,12,05,49,25.70
2012,03,12,05,50,25.70
2012,03,12,05,51,37.00
2012,03,12,05,52,24.20
2012,03,12,05,53,35.40
2012,03,12,05,54,40.20
2012,03,12,05,55,40.20
2012,03,12,05,56,30.60
2012,03,12,05,57,22.50
2012,03,12,05,58,33.80
2012,03,12,05,59,19.30
2012,03,12,06,00,24.20
2012,03,12,06,01,11.30
2012,03,12,06,02,22.50
2012,03,12,06,03,25.70
2012,03,12,06,04,33.80
2012,03,12,06,05,17.70
2012,03,12,06,06,24.20
2012,03,12,06,07,33.80
2012,03,12,06,08,38.60
2012,03,12,06,09,32.20
2012,03,12,06,10,54.70
2012,03,12,06,11,24.20
2012,03,12,06,12,49.90
2012,03,12,06,13,30.60
2012,03,12,06,14,24.20
2012,03,12,06,15,24.20
2012,03,12,06,16,37.00
2012,03,12,06,17,30.60
2012,03,12,06,18,29.00
2012,03,12,06,19,30.60
2012,03,12,06,20,30.60
2012,03,12,06,21,46.70
2012,03,12,06,22,40.20
2012,03,12,06,23,41.80
2012,03,12,06,24,22.50
2012,03,12,06,25,25.70
2012,03,12,06,26,19.30
2012,03,12,06,27,30.60
2012,03,12,06,28,29.00
2012,03,12,06,29,46.70
2012,03,12,06,30,37.00
2012,03,12,06,31,22.50
2012,03,12,06,32,49.90
2012,03,12,06,33,38.60
2012,03,12,06,34,38.60
2012,03,12,06,35,40.20
2012,03,12,06,36,45.10
2012,03,12,06,37,37.00
2012,03,12,06,38,32.20
2012,03,12,06,39,29.00
2012,03,12,06,40,30.60
2012,03,12,06,41,41.80
2012,03,12,06,42,56.30
2012,03,12,06,43,48.30
2012,03,12,06,44,30.60
2012,03,12,06,45,35.40
2012,03,12,06,46,46.70
2012,03,12,06,47,37.00
2012,03,12,06,48,35.40
2012,03,12,06,49,29.00
2012,03,12,06,50,19.30
2012,03,12,06,51,43.50
2012,03,12,06,52,33.80
2012,03,12,06,53,32.20
2012,03,12,06,54,41.80
2012,03,12,06,55,40.20
2012,03,12,06,56,30.60
2012,03,12,06,57,29.00
2012,03,12,06,58,33.80
2012,03,12,06,59,59.50
2012,03,12,07,00,37.00
2012,03,12,07,01,41.80
2012,03,12,07,02,30.60
2012,03,12,07,03,37.00
2012,03,12,07,04,29.00
2012,03,12,07,05,66.00
2012,03,12,07,06,45.10
2012,03,12,07,07,38.60
2012,03,12,07,08,51.50
2012,03,12,07,09,41.80
2012,03,12,07,10,35.40
2012,03,12,07,11,30.60
2012,03,12,07,12,38.60
2012,03,12,07,13,51.50
2012,03,12,07,14,33.80
2012,03,12,07,15,33.80
2012,03,12,07,16,40.20
2012,03,12,07,17,27.40
2012,03,12,07,18,62.70
2012,03,12,07,19,41.80
2012,03,12,07,20,45.10
2012,03,12,07,21,33.80
2012,03,12,07,22,32.20
2012,03,12,07,23,46.70
2012,03,12,07,24,32.20
2012,03,12,07,25,48.30
2012,03,12,07,26,48.30
2012,03,12,07,27,27.40
2012,03,12,07,28,24.20
2012,03,12,07,29,29.00
2012,03,12,07,30,37.00
2012,03,12,07,31,37.00
2012,03,12,07,32,37.00
2012,03,12,07,33,33.80
2012,03,12,07,34,25.70
2012,03,12,07,35,64.40
2012,03,12,07,36,33.80
2012,03,12,07,37,37.00
2012,03,12,07,38,40.20
2012,03,12,07,39,29.00
2012,03,12,07,40,38.60
2012,03,12,07,41,43.50
2012,03,12,07,42,43.50
2012,03,12,07,43,33.80
2012,03,12,07,44,35.40
2012,03,12,07,45,32.20
2012,03,12,07,46,35.40
2012,03,12,07,47,40.20
2012,03,12,07,48,46.70
2012,03,12,07,49,43.50
2012,03,12,07,50,51.50
2012,03,12,07,51,32.20
2012,03,12,07,52,25.70
2012,03,12,07,53,32.20
2012,03,12,07,54,38.60
2012,03,12,07,55,19.30
2012,03,12,07,56,37.00
2012,03,12,07,57,46.70
2012,03,12,07,58,38.60
2012,03,12,07,59,40.20
2012,03,12,08,00,41.80
2012,03,12,08,01,37.00
2012,03,12,08,02,41.80
2012,03,12,08,03,35.40
2012,03,12,08,04,35.40
2012,03,12,08,05,51.50
2012,03,12,08,06,29.00
2012,03,12,08,07,35.40
2012,03,12,08,08,40.20
2012,03,12,08,09,38.60
2012,03,12,08,10,38.60
2012,03,12,08,11,45.10
2012,03,12,08,12,41.80
2012,03,12,08,13,43.50
2012,03,12,08,14,51.50
2012,03,12,08,15,38.60
2012,03,12,08,16,41.80
2012,03,12,08,17,33.80
2012,03,12,08,18,19.30
2012,03,12,08,19,43.50
2012,03,12,08,20,30.60
2012,03,12,08,21,45.10
2012,03,12,08,22,33.80
2012,03,12,08,23,45.10
2012,03,12,08,24,40.20
2012,03,12,08,25,43.50
2012,03,12,08,26,27.40
2012,03,12,08,27,19.30
2012,03,12,08,28,16.10
2012,03,12,08,29,30.60
2012,03,12,08,30,35.40
2012,03,12,08,31,45.10
2012,03,12,08,32,27.40
2012,03,12,08,33,22.50
2012,03,12,08,34,48.30
2012,03,12,08,35,20.90
2012,03,12,08,36,27.40
2012,03,12,08,37,35.40
2012,03,12,08,38,38.60
2012,03,12,08,39,40.20
2012,03,12,08,40,38.60
2012,03,12,08,41,33.80
2012,03,12,08,42,37.00
2012,03,12,08,43,35.40
2012,03,12,08,44,33.80
2012,03,12,08,45,35.40
2012,03,12,08,46,27.40
2012,03,12,08,47,20.90
2012,03,12,08,48,16.10
2012,03,12,08,49,30.60
2012,03,12,08,50,40.20
2012,03,12,08,51,30.60
2012,03,12,08,52,43.50
2012,03,12,08,53,24.20
2012,03,12,08,54,27.40
2012,03,12,08,55,25.70
2012,03,12,08,56,16.10
2012,03,12,08,57,30.60
2012,03,12,08,58,17.70
2012,03,12,08,59,25.70
2012,03,12,09,00,30.60
2012,03,12,09,01,32.20
2012,03,12,09,02,32.20
2012,03,12,09,03,43.50
2012,03,12,09,04,40.20
2012,03,12,09,05,27.40
2012,03,12,09,06,30.60
2012,03,12,09,07,57.90
2012,03,12,09,08,24.20
2012,03,12,09,09,29.00
2012,03,12,09,10,32.20
2012,03,12,09,11,30.60
2012,03,12,09,12,45.10
2012,03,12,09,13,37.00
2012,03,12,09,14,17.70
2012,03,12,09,15,22.50
2012,03,12,09,16,37.00
2012,03,12,09,17,29.00
2012,03,12,09,18,19.30
2012,03,12,09,19,19.30
2012,03,12,09,20,22.50
2012,03,12,09,21,24.20
2012,03,12,09,22,27.40
2012,03,12,09,23,29.00
2012,03,12,09,24,19.30
2012,03,12,09,25,41.80
2012,03,12,09,26,41.80
2012,03,12,09,27,12.90
2012,03,12,09,28,16.10
2012,03,12,09,29,29.00
2012,03,12,09,30,19.30
2012,03,12,09,31,35.40
2012,03,12,09,32,33.80
2012,03,12,09,33,25.70
2012,03,12,09,34,20.90
2012,03,12,09,35,27.40
2012,03,12,09,36,27.40
2012,03,12,09,37,9.60
2012,03,12,09,38,19.30
2012,03,12,09,39,25.70
2012,03,12,09,40,24.20
2012,03,12,09,41,25.70
2012,03,12,09,42,27.40
2012,03,12,09,43,33.80
2012,03,12,09,44,37.00
2012,03,12,09,45,33.80
2012,03,12,09,46,35.40
2012,03,12,09,47,29.00
2012,03,12,09,48,24.20
2012,03,12,09,49,22.50
2012,03,12,09,50,14.50
2012,03,12,09,51,25.70
2012,03,12,09,52,32.20
2012,03,12,09,53,20.90
2012,03,12,09,54,29.00
2012,03,12,09,55,27.40
2012,03,12,09,56,19.30
2012,03,12,09,57,20.90
2012,03,12,09,58,27.40
2012,03,12,09,59,27.40
2012,03,12,10,00,29.00
2012,03,12,10,01,17.70
2012,03,12,10,02,24.20
2012,03,12,10,03,27.40
2012,03,12,10,04,40.20
2012,03,12,10,05,25.70
2012,03,12,10,06,17.70
2012,03,12,10,07,27.40
2012,03,12,10,08,27.40
2012,03,12,10,09,14.50
2012,03,12,10,10,33.80
2012,03,12,10,11,20.90
2012,03,12,10,12,32.20
2012,03,12,10,13,16.10
2012,03,12,10,14,37.00
2012,03,12,10,15,27.40
2012,03,12,10,16,22.50
2012,03,12,10,17,17.70
2012,03,12,10,18,11.30
2012,03,12,10,19,9.60
2012,03,12,10,20,14.50
2012,03,12,10,21,19.30
2012,03,12,10,22,29.00
2012,03,12,10,23,30.60
2012,03,12,10,24,24.20
2012,03,12,10,25,24.20
2012,03,12,10,26,27.40
2012,03,12,10,27,33.80
2012,03,12,10,28,20.90
2012,03,12,10,29,24.20
2012,03,12,10,30,40.20
2012,03,12,10,31,19.30
2012,03,12,10,32,20.90
2012,03,12,10,33,11.30
2012,03,12,10,34,20.90
2012,03,12,10,35,12.90
2012,03,12,10,36,11.30
2012,03,12,10,37,9.60
2012,03,12,10,38,30.60
2012,03,12,10,39,30.60
2012,03,12,10,40,19.30
2012,03,12,10,41,24.20
2012,03,12,10,42,19.30
2012,03,12,10,43,27.40
2012,03,12,10,44,16.10
2012,03,12,10,45,27.40
2012,03,12,10,46,12.90
2012,03,12,10,47,9.60
2012,03,12,10,48,32.20
2012,03,12,10,49,27.40
2012,03,12,10,50,19.30
2012,03,12,10,51,29.00
2012,03,12,10,52,12.90
2012,03,12,10,53,29.00
2012,03,12,10,54,22.50
2012,03,12,10,55,24.20
2012,03,12,10,56,27.40
2012,03,12,10,57,19.30
2012,03,12,10,58,11.30
2012,03,12,10,59,17.70
2012,03,12,11,00,22.50
2012,03,12,11,01,20.90
2012,03,12,11,02,25.70
2012,03,12,11,03,16.10
2012,03,12,11,04,9.60
2012,03,12,11,05,16.10
2012,03,12,11,06,11.30
2012,03,12,11,07,12.90
2012,03,12,11,08,19.30
2012,03,12,11,09,16.10
2012,03,12,11,10,14.50
2012,03,12,11,11,20.90
2012,03,12,11,12,14.50
2012,03,12,11,13,17.70
2012,03,12,11,14,19.30
2012,03,12,11,15,12.90
2012,03,12,11,16,41.80
2012,03,12,11,17,33.80
2012,03,12,11,18,20.90
2012,03,12,11,19,24.20
2012,03,12,11,20,29.00
2012,03,12,11,23,25.70
2012,03,12,11,24,27.40
2012,03,12,11,25,22.50
2012,03,12,11,26,25.70
2012,03,12,11,27,40.20
2012,03,12,11,28,17.70
2012,03,12,11,29,14.50
2012,03,12,11,30,19.30
2012,03,12,11,31,25.70
2012,03,12,11,32,17.70
2012,03,12,11,33,30.60
2012,03,12,11,34,27.40
2012,03,12,11,35,22.50
2012,03,12,11,36,30.60
2012,03,12,11,37,17.70
2012,03,12,11,38,27.40
2012,03,12,11,39,17.70
2012,03,12,11,40,11.30
2012,03,12,11,41,27.40
2012,03,12,11,42,17.70
2012,03,12,11,43,14.50
2012,03,12,11,44,20.90
2012,03,12,11,45,17.70
2012,03,12,11,46,24.20
2012,03,12,11,47,14.50
2012,03,12,11,48,11.30
2012,03,12,11,49,22.50
2012,03,12,11,50,16.10
2012,03,12,11,51,25.70
2012,03,12,11,52,14.50
2012,03,12,11,53,14.50
2012,03,12,11,54,11.30
2012,03,12,11,55,35.40
2012,03,12,11,56,22.50
2012,03,12,11,57,27.40
2012,03,12,11,58,32.20
2012,03,12,11,59,14.50
2012,03,12,12,00,17.70
2012,03,12,12,01,14.50
2012,03,12,12,02,24.20
2012,03,12,12,03,20.90
2012,03,12,12,04,25.70
2012,03,12,12,05,19.30
2012,03,12,12,06,20.90
2012,03,12,12,07,27.40
2012,03,12,12,08,24.20
2012,03,12,12,09,30.60
2012,03,12,12,10,25.70
2012,03,12,12,11,20.90
2012,03,12,12,12,20.90
2012,03,12,12,13,8.10
2012,03,12,12,14,29.00
2012,03,12,12,15,24.20
2012,03,12,12,16,14.50
2012,03,12,12,17,27.40
2012,03,12,12,18,27.40
2012,03,12,12,19,24.20
2012,03,12,12,20,24.20
2012,03,12,12,21,19.30
2012,03,12,12,22,25.70
2012,03,12,12,23,20.90
2012,03,12,12,24,24.20
2012,03,12,12,25,20.90
2012,03,12,12,26,9.60
2012,03,12,12,27,19.30
2012,03,12,12,28,16.10
2012,03,12,12,29,24.20
2012,03,12,12,30,32.20
2012,03,12,12,31,30.60
2012,03,12,12,32,24.20
2012,03,12,12,33,22.50
2012,03,12,12,34,19.30
2012,03,12,12,35,17.70
2012,03,12,12,36,20.90
2012,03,12,12,37,16.10
2012,03,12,12,38,12.90
2012,03,12,12,39,20.90
2012,03,12,12,40,17.70
2012,03,12,12,41,25.70
2012,03,12,12,42,17.70
2012,03,12,12,43,16.10
2012,03,12,12,44,30.60
2012,03,12,12,45,17.70
2012,03,12,12,46,43.50
2012,03,12,12,47,29.00
2012,03,12,12,48,20.90
2012,03,12,12,49,11.30
2012,03,12,12,50,11.30
2012,03,12,12,51,17.70
2012,03,12,12,52,16.10
2012,03,12,12,53,22.50
2012,03,12,12,54,17.70
2012,03,12,12,55,16.10
2012,03,12,12,56,12.90
2012,03,12,12,57,25.70
2012,03,12,12,58,11.30
2012,03,12,12,59,20.90
2012,03,12,13,00,20.90
2012,03,12,13,01,27.40
2012,03,12,13,02,16.10
2012,03,12,13,03,6.40
2012,03,12,13,04,19.30
2012,03,12,13,05,17.70
2012,03,12,13,06,27.40
2012,03,12,13,07,25.70
2012,03,12,13,08,32.20
2012,03,12,13,09,27.40
2012,03,12,13,10,33.80
2012,03,12,13,11,32.20
2012,03,12,13,12,14.50
2012,03,12,13,13,27.40
2012,03,12,13,14,25.70
2012,03,12,13,15,20.90
2012,03,12,13,16,14.50
2012,03,12,13,17,19.30
2012,03,12,13,18,20.90
2012,03,12,13,19,24.20
2012,03,12,13,20,29.00
2012,03,12,13,21,22.50
2012,03,12,13,22,24.20
2012,03,12,13,23,19.30
2012,03,12,13,24,17.70
2012,03,12,13,25,20.90
2012,03,12,13,26,20.90
2012,03,12,13,27,24.20
2012,03,12,13,28,12.90
2012,03,12,13,29,22.50
2012,03,12,13,30,19.30
2012,03,12,13,31,17.70
2012,03,12,13,32,12.90
2012,03,12,13,33,30.60
2012,03,12,13,34,22.50
2012,03,12,13,35,9.60
2012,03,12,13,36,24.20
2012,03,12,13,37,22.50
2012,03,12,13,38,22.50
2012,03,12,13,39,24.20
2012,03,12,13,40,20.90
2012,03,12,13,41,19.30
2012,03,12,13,42,14.50
2012,03,12,13,43,20.90
2012,03,12,13,44,17.70
2012,03,12,13,45,14.50
2012,03,12,13,46,14.50
2012,03,12,13,47,16.10
2012,03,12,13,48,6.40
2012,03,12,13,49,6.40
2012,03,12,13,50,16.10
2012,03,12,13,51,25.70
2012,03,12,13,52,30.60
2012,03,12,13,53,30.60
2012,03,12,13,54,22.50
2012,03,12,13,55,9.60
2012,03,12,13,56,20.90
2012,03,12,13,57,16.10
2012,03,12,13,58,14.50
2012,03,12,14,00,17.70
2012,03,12,14,01,12.90
2012,03,12,14,02,14.50
2012,03,12,14,03,11.30
2012,03,12,14,04,14.50
2012,03,12,14,05,8.10
2012,03,12,14,06,9.60
2012,03,12,14,07,9.60
2012,03,12,14,08,12.90
2012,03,12,14,09,9.60
2012,03,12,14,10,9.60
2012,03,12,14,11,17.70
2012,03,12,14,12,8.10
2012,03,12,14,13,8.10
2012,03,12,14,14,11.30
2012,03,12,14,15,11.30
2012,03,12,14,16,8.10
2012,03,12,14,17,20.90
2012,03,12,14,18,33.80
2012,03,12,14,19,24.20
2012,03,12,14,20,20.90
2012,03,12,14,21,27.40
2012,03,12,14,22,14.50
2012,03,12,14,23,17.70
2012,03,12,14,24,20.90
2012,03,12,14,25,19.30
2012,03,12,14,26,11.30
2012,03,12,14,27,12.90
2012,03,12,14,28,8.10
2012,03,12,14,29,12.90
2012,03,12,14,30,9.60
2012,03,12,14,31,9.60
2012,03,12,14,32,14.50
2012,03,12,14,33,9.60
2012,03,12,14,34,9.60
2012,03,12,14,35,16.10
2012,03,12,14,36,11.30
2012,03,12,14,37,6.40
2012,03,12,14,38,12.90
2012,03,12,14,39,11.30
2012,03,12,14,40,6.40
2012,03,12,14,41,8.10
2012,03,12,14,42,8.10
2012,03,12,14,43,9.60
2012,03,12,14,44,6.40
2012,03,12,14,45,6.40
2012,03,12,14,46,3.20
2012,03,12,14,47,6.40
2012,03,12,14,48,6.40
2012,03,12,14,49,8.10
2012,03,12,14,50,8.10
2012,03,12,14,51,16.10
2012,03,12,14,52,17.70
2012,03,12,14,53,6.40
2012,03,12,14,54,8.10
2012,03,12,14,55,11.30
2012,03,12,14,56,9.60
2012,03,12,14,57,11.30
2012,03,12,14,58,8.10
2012,03,12,14,59,11.30
2012,03,12,15,00,9.60
2012,03,12,15,01,4.80
2012,03,12,15,02,12.90
2012,03,12,15,03,6.40
2012,03,12,15,04,14.50
2012,03,12,15,05,11.30
2012,03,12,15,06,14.50
2012,03,12,15,07,8.10
2012,03,12,15,08,16.10
2012,03,12,15,09,9.60
2012,03,12,15,10,12.90
2012,03,12,15,11,19.30
2012,03,12,15,12,14.50
2012,03,12,15,13,19.30
2012,03,12,15,14,17.70
2012,03,12,15,15,20.90
2012,03,12,15,16,22.50
2012,03,12,15,17,9.60
2012,03,12,15,18,11.30
2012,03,12,15,19,11.30
2012,03,12,15,20,9.60
2012,03,12,15,21,14.50
2012,03,12,15,22,16.10
2012,03,12,15,23,6.40
2012,03,12,15,24,6.40
2012,03,12,15,25,14.50
2012,03,12,15,26,8.10
2012,03,12,15,27,16.10
2012,03,12,15,28,8.10
2012,03,12,15,29,9.60
2012,03,12,15,30,9.60
2012,03,12,15,31,14.50
2012,03,12,15,32,9.60
2012,03,12,15,33,8.10
2012,03,12,15,34,9.60
2012,03,12,15,35,6.40
2012,03,12,15,36,11.30
2012,03,12,15,37,9.60
2012,03,12,15,38,6.40
2012,03,12,15,39,8.10
2012,03,12,15,40,14.50
2012,03,12,15,41,20.90
2012,03,12,15,42,14.50
2012,03,12,15,43,3.20
2012,03,12,15,44,14.50
2012,03,12,15,45,8.10
2012,03,12,15,46,11.30
2012,03,12,15,47,19.30
2012,03,12,15,48,9.60
2012,03,12,15,49,8.10
2012,03,12,15,50,6.40
2012,03,12,15,51,16.10
2012,03,12,15,52,9.60
2012,03,12,15,53,17.70
2012,03,12,15,54,11.30
2012,03,12,15,55,11.30
2012,03,12,15,56,12.90
2012,03,12,15,57,6.40
2012,03,12,15,58,11.30
2012,03,12,15,59,12.90
2012,03,12,16,00,14.50
2012,03,12,16,01,14.50
2012,03,12,16,02,20.90
2012,03,12,16,03,12.90
2012,03,12,16,04,9.60
2012,03,12,16,05,9.60
2012,03,12,16,06,19.30
2012,03,12,16,07,19.30
2012,03,12,16,08,6.40
2012,03,12,16,09,9.60
2012,03,12,16,10,9.60
2012,03,12,16,11,19.30
2012,03,12,16,12,20.90
2012,03,12,16,13,12.90
2012,03,12,16,14,19.30
2012,03,12,16,15,14.50
2012,03,12,16,16,16.10
2012,03,12,16,17,9.60
2012,03,12,16,18,16.10
2012,03,12,16,19,8.10
2012,03,12,16,20,14.50
2012,03,12,16,21,14.50
2012,03,12,16,22,12.90
2012,03,12,16,23,16.10
2012,03,12,16,24,9.60
2012,03,12,16,25,11.30
2012,03,12,16,26,9.60
2012,03,12,16,27,9.60
2012,03,12,16,28,11.30
2012,03,12,16,29,9.60
2012,03,12,16,30,16.10
2012,03,12,16,31,16.10
2012,03,12,16,32,12.90
2012,03,12,16,33,12.90
2012,03,12,16,34,6.40
2012,03,12,16,35,6.40
2012,03,12,16,36,9.60
2012,03,12,16,37,9.60
2012,03,12,16,38,9.60
2012,03,12,16,39,12.90
2012,03,12,16,40,12.90
2012,03,12,16,41,9.60
2012,03,12,16,42,8.10
2012,03,12,16,43,11.30
2012,03,12,16,44,11.30
2012,03,12,16,45,17.70
2012,03,12,16,46,19.30
2012,03,12,16,47,8.10
2012,03,12,16,48,9.60
2012,03,12,16,49,9.60
2012,03,12,16,50,11.30
2012,03,12,16,51,12.90
2012,03,12,16,52,12.90
2012,03,12,16,53,8.10
2012,03,12,16,54,9.60
2012,03,12,16,55,11.30
2012,03,12,16,56,6.40
2012,03,12,16,57,9.60
2012,03,12,16,58,9.60
2012,03,12,16,59,11.30
2012,03,12,17,00,8.10
2012,03,12,17,01,3.20
2012,03,12,17,02,8.10
2012,03,12,17,03,8.10
2012,03,12,17,04,11.30
2012,03,12,17,05,9.60
2012,03,12,17,06,9.60
2012,03,12,17,07,9.60
2012,03,12,17,08,6.40
2012,03,12,17,09,6.40
2012,03,12,17,10,14.50
2012,03,12,17,11,9.60
2012,03,12,17,12,8.10
2012,03,12,17,13,12.90
2012,03,12,17,14,16.10
2012,03,12,17,15,6.40
2012,03,12,17,16,20.90
2012,03,12,17,17,19.30
2012,03,12,17,18,16.10
2012,03,12,17,19,12.90
2012,03,12,17,20,14.50
2012,03,12,17,21,9.60
2012,03,12,17,22,9.60
2012,03,12,17,23,16.10
2012,03,12,17,24,9.60
2012,03,12,17,25,20.90
2012,03,12,17,26,16.10
2012,03,12,17,27,3.20
2012,03,12,17,28,6.40
2012,03,12,17,29,11.30
2012,03,12,17,30,8.10
2012,03,12,17,31,9.60
2012,03,12,17,32,8.10
2012,03,12,17,33,4.80
2012,03,12,17,34,16.10
2012,03,12,17,35,9.60
2012,03,12,17,36,4.80
2012,03,12,17,37,4.80
2012,03,12,17,38,11.30
2012,03,12,17,39,8.10
2012,03,12,17,40,1.60
2012,03,12,17,41,11.30
2012,03,12,17,42,11.30
2012,03,12,17,43,11.30
2012,03,12,17,44,3.20
2012,03,12,17,45,8.10
2012,03,12,17,46,6.40
2012,03,12,17,47,9.60
2012,03,12,17,48,11.30
2012,03,12,17,49,11.30
2012,03,12,17,50,6.40
2012,03,12,17,51,8.10
2012,03,12,17,52,8.10
2012,03,12,17,53,8.10
2012,03,12,17,54,8.10
2012,03,12,17,55,8.10
2012,03,12,17,56,9.60
2012,03,12,17,57,9.60
2012,03,12,17,58,11.30
2012,03,12,17,59,11.30
2012,03,12,18,00,3.20
2012,03,12,18,01,8.10
2012,03,12,18,02,11.30
2012,03,12,18,03,14.50
2012,03,12,18,04,11.30
2012,03,12,18,05,8.10
2012,03,12,18,06,14.50
2012,03,12,18,07,12.90
2012,03,12,18,08,9.60
2012,03,12,18,09,9.60
2012,03,12,18,10,9.60